Regional Weather Roundup
Issued by NWS

Home | Current Version | Previous Version | Text Only | Print | Product List | Glossary On
Versions: 1 2 3 4 5 6 7 8 9 10 11 12 13 14 15 16 17 18 19 20 21 22 23 24 25 26 27 28 29 30 31 32 33 34 35 36 37 38 39 40 41 42 43 44 45 46 47 48 49 50
000
ASUS43 KMKX 280710
RWRWI

WISCONSIN REGIONAL WEATHER ROUNDUP
NATIONAL WEATHER SERVICE MILWAUKEE/SULLIVAN WI
100 AM CST SAT FEB 28 2015

NOTE: "FAIR" INDICATES FEW OR NO CLOUDS BELOW 12,000 FEET WITH NO
SIGNIFICANT WEATHER AND/OR OBSTRUCTIONS TO VISIBILITY.

WIZ001-002-006>008-014>016-023>028-280800-
NORTHWEST WISCONSIN

CITY           SKY/WX    TMP DP  RH WIND       PRES   REMARKS
SUPERIOR ARPT  CLEAR      5  -4  66 SW7       30.48S WCI  -7
ASHLAND        CLEAR      6  -5  60 SW10      30.48R WCI  -9
HAYWARD        CLEAR     -8 -13  78 CALM      30.47S
SIREN          CLEAR      3  -4  72 S5        30.50S WCI  -6
CUMBERLAND     CLEAR     -4  -8  84 SW6       30.49R WCI -16
RICE LAKE      CLEAR     -1  -6  81 S3        30.52S
CHETEK         CLEAR     -4  -8  85 CALM      30.52S
LADYSMITH      CLEAR     -3  -6  87 S3        30.52R
EAU CLAIRE     FAIR       0  -6  76 S5        30.55R WCI -10
MENOMONIE      CLEAR      0  -5  77 SE3       30.55S
NEW RICHMOND   CLEAR      1  -4  79 S6        30.52S WCI -10
OSCEOLA        CLEAR      0  -4  81 S6        30.55S WCI -12
$$

WIZ003>005-009-010-017-018-280800-
NORTH CENTRAL WISCONSIN

CITY           SKY/WX    TMP DP  RH WIND       PRES   REMARKS
MANITOWISH WTR CLEAR     -7 -13  76 CALM      30.42S
ARBOR VITAE    CLEAR     -5 -11  75 CALM      30.43S
WOODRUFF       CLEAR     -5 -11  75 CALM      30.43S
RHINELANDER    CLEAR     -4 -10  75 SW6       30.44R WCI -16
EAGLE RIVER    CLEAR     -3  -9  75 CALM      30.42S
LAND O LAKES   CLEAR    -15 -20  77 CALM      30.42R
PHILLIPS       CLEAR     -6 -10  82 CALM      30.46R
TOMAHAWK       CLEAR    -12 -16  81 CALM      30.47S
MEDFORD        PTCLDY    -1  -6  78 SW5       30.48R WCI -11
MERRILL        CLEAR    -12 -17  79 CALM      30.49S
$$

WIZ029-030-035-036-043>047-280800-
CENTRAL WISCONSIN

CITY           SKY/WX    TMP DP  RH WIND       PRES   REMARKS
WAUSAU         CLEAR      2  -7  66 CALM      30.50S
MOSINEE        CLEAR      0  -8  71 SW7       30.52S WCI -13
MARSHFIELD     PTCLDY    -2  -9  72 SW6       30.52R WCI -14
STEVENS POINT  CLEAR      2  -8  62 SW7       30.55R WCI -11
WAUPACA        CLEAR      5  -6  60 W6        30.58S WCI  -6
WAUTOMA        CLEAR     -5 -10  79 CALM      30.59S
WISC RAPIDS    CLEAR      0  -9  65 SW6       30.57R WCI -12
CAMP DOUGLAS   CLEAR     -1  -8  73 SW5       30.58S WCI -11
$$

WIZ011>013-019>022-031-037>040-048>050-280800-
NORTHEAST WISCONSIN

CITY           SKY/WX    TMP DP  RH WIND       PRES   REMARKS
ANTIGO         CLEAR     -4  -8  79 W5        30.47S WCI -14
SHAWANO        CLEAR      6  -5  59 CALM      30.56S
OCONTO         CLEAR      2  -7  66 SW5       30.56S WCI  -7
STURGEON BAY   CLEAR      7  -6  56 SW6       30.57R WCI  -3
GREEN BAY      CLEAR      6  -4  63 SW6       30.58R WCI  -4
MANITOWOC      CLEAR      7  -2  66 W12       30.59R WCI  -8
APPLETON       CLEAR      5  -6  61 SW8       30.56S WCI  -8
CLINTONVILLE   CLEAR      5  -6  61 W5        30.56R WCI  -4
OSHKOSH        CLEAR      4  -5  66 SW3       30.58S
$$

WIZ032>034-041-042-053>061-280800-
SOUTHWEST WISCONSIN

CITY           SKY/WX    TMP DP  RH WIND       PRES   REMARKS
LA CROSSE      CLEAR     -1  -7  75 SE5       30.61F WCI -11
SPARTA         CLEAR    -10 -15  80 CALM      30.60S
VIROQUA        CLEAR     -3  -8  80 SW6       30.54S WCI -15
BOSCOBEL       PTCLDY    -9 -14  78 CALM      30.66R
PRAIRIE DU CHI PTCLDY    -9 -15  76 CALM      30.65S
PLATTEVILLE    PTCLDY    -4  -9  79 CALM      30.61S
$$

WIZ056-057-062-063-064-067-068-280800-
SOUTH CENTRAL WISCONSIN

CITY           SKY/WX    TMP DP  RH WIND       PRES   REMARKS
REEDSBURG      FAIR       1  -7  69 SW3       30.60R
BARABOO/DELLS  FAIR       1  -8  67 CALM      30.59S
LONE ROCK      CLEAR    -10 -16  74 CALM      30.64R
MINERAL POINT  PTCLDY     1  -6  71 CALM      30.59S
MADISON        CLEAR     -1  -9  68 CALM      30.61R
MIDDLETON      CLEAR      1  -8  67 CALM      30.61S
WATERTOWN      CLEAR      0  -7  73 CALM      30.61S
MONROE         PTCLDY     0  -6  78 SW8       30.59S WCI -15
JANESVILLE     PTCLDY     0  -8  71 CALM      30.64R
$$

WIZ051-052-058>065-066-070>072-280800-
SOUTHEAST WISCONSIN

CITY           SKY/WX    TMP DP  RH WIND       PRES   REMARKS
MILWAUKEE      CLEAR      3  -7  63 W7        30.64R WCI  -9
WAUKESHA       CLEAR      1  -8  66 SW6       30.62S WCI -10
MILWAUKEE/TIMM CLEAR      3  -6  66 W5        30.63S WCI  -6
RACINE         CLEAR      2  -8  63 W8        30.66R WCI -12
BURLINGTON     PTCLDY    -6 -12  74 SW5       30.64R WCI -17
KENOSHA        PTCLDY    -3 -10  72 W7        30.65R WCI -16
FOND DU LAC    CLEAR      3  -6  66 SW7       30.60R WCI  -9
SHEBOYGAN      CLEAR      4  -6  63 W10       30.59S WCI -11
WEST BEND      CLEAR      5  -6  61 SW8       30.60R WCI  -8
JUNEAU         CLEAR      0  -7  74 S6        30.61S WCI -12
$$

LSZ147-162-280800-
LAKE SUPERIOR

STATION/POSITION TIME  TEMP    WIND        PRES    WAVE
                       AIR SEA DIR/SP/G            HT/PER
                 (UTC) (F)     (DEG/KT/KT) (MB)    (FT/S)
DEVILS ISLAND    0700   11     230/ 16/ 20 1032.7R
PORT WING        0600   10     200/  6/ 11 1031.8
SAXON HARBOR     0600    9     190/  4/  8 1032.2R
$$

LMZ867-665-643>646-280800-
LAKE MICHIGAN

STATION/POSITION TIME  TEMP    WIND        PRES    WAVE
                       AIR SEA DIR/SP/G            HT/PER
                 (UTC) (F)     (DEG/KT/KT) (MB)    (FT/S)
NORTHPORT PIER   0635   10     260/  4/ 13 1033.9R
SISTER BAY       0643    9     250/ 11/ 13   N/A
KEWAUNEE LAKESHO 0606    8     240/  3/ 10 1034.1R
SHEBOYGAN LAKESH 0700    8     260/ 12/ 13 1038.0R
PORT WASHINGTON  0640    7     270/  7/ 13 1037.6R
MILWAUKEE LAKESH 0600    9     250/ 11/ 15   N/A
KENOSHA   LAKESH 0700    3     240/  5/  9 1037.9R
$$

TC  - TEMPERATURE IN CELSIUS
VSB - VISIBILITY IN STATUTE MILES
WCI - WIND CHILL INDEX
HX  - HEAT INDEX




USA.gov is the U.S. government's official web portal to all federal, state and local government web resources and services.